Location: Aulus
(42.7909°N, 1.3399°E)
Time: 01:18:03
(UTC+00:00)

USA 245 - Pass Details

Date: 19 May 2025
Orbit: 292 x 1030 km, 97.9° (Epoch: 02 June)

Event Time Altitude Azimuth Distance (km) Brightness Sun altitude
Exits shadow 20:37:31 20° 135° (SE) 1,429 4.8 -13.1°
Maximum altitude 20:40:13 47° 69° (ENE) 901 4.2 -13.4°
Drops below altitude 10° 20:45:13 10° 357° (N) 2,377 7.3 -14.1°
Sets 20:47:53 0° 352° (N) 3,430 8.3 -14.4°
